SCOUT A DEB, 2702

Orbit data source: Space-Track

SCOUT A DEB, 2702 is space debris in LEO originally from a launch on Thu, 18 Aug 1966 UTC launched from the Air Force Western Test Range (AFWTR). Debris objects in space refer to the collection of defunct objects orbiting the Earth. Examples of debris include non-operational satellites, rocket bodies, and fragments generated from explosions, collisions, or faulty payload assembly.

Loading next visibility...
Identifier
2702, 1966-076D
Orbit
LEO
Country
Flag of USUS
Related business
Manufacturer
Unknown
Mission
Spacecraft
Bus & Motor
Unknown
Mass
Unknown
Launch date (UTC)
1966-08-18 (59 years ago)
Launch vehicle
Unknown
Launch site
Air Force Western Test Range (AFWTR)
Object type
Payload
Rocket body
Debris
Shape & HBR
Unknown shape, 0.1 m
Radar Cross Section
Small (<0.1 m²)

Expand to show TLE details & history
Last TLE update: 17 hours ago

TLE from 17 hours ago
0 SCOUT A DEB
1 02702U 66076D   25293.42221734  .00000224  00000-0  40338-3 0  9991
2 02702  88.5586 291.8461 0086431 230.4934 280.3851 13.36503132864306
Epoch: 2025-10-20T10:07Z
TLE epoch observation values (Epoch: 2025-10-20T10:07:59.578Z)
Latitude
30.13492°
Longitude
-70.10955°
Altitude
1,115.007 km
Speed
7.303 km/s
True Right ascension
07h 24m 03s
True Declination
29° 59' 35"
Sunlit
Object was in daylight at epoch
Visualization orbit readout
Latitude
Unknown
Longitude
Unknown
Altitude
Unknown
Speed
Unknown
Apparent Right ascension
Unknown
Apparent Declination
Unknown
Sunlit
N/A
Visualization observer readout
Local Sidereal Time
22:15:23
Azimuth
Unknown
Elevation
Unknown
Doppler factor
Unknown
Orbital elements
Apogee altitude
1,184.211 km
Perigee altitude
1,054.606 km
Semi-major axis
7,497.546 km
Eccentricity
0.00864
Inclination
88.5586°
RAAN
291.8461°
Arg. of periapsis
230.4934°
True anomaly
279.40904°
Mean anomaly
280.3851°
Eccentric anomaly
279.89726°
Mean motion
3.34322 °/min
Orbital period
107.68 mins
BSTAR
0.00040338
Loading maneuver chart data...
Computing Atmospheric mass density...
Loading historical data...
Loading historical data...
Loading historical data...
Loading historical data...
Loading historical data...
Loading historical data...
Loading historical data...

Documentation

Showing up to 5 results
|